Date,Time,Precipitation (SUM),Temperature (MIN),Temperature (AVG),Temperature (MAX),Relative Humidity min,Relative Humidity (AVG),Relative Humidity max,Soil Temperature 010cm (MIN),Soil Temperature 010cm (AVG),Soil Temperature 010cm (MAX),Min WndSpd (MIN),Avg WndSpd (AVG),Max WndSpd (MAX),daily leafwet hours,PAR Sensor (SUM),Sun duration dly,GDD daily,Chill Hrs,Daily ET
06 October 2016,00:00:00,0.0,3.0,7.2,11.0,45.9,67.5,87.6,5.5,7.9,10.6,0.00,12.07,48.69,2.0,25.3,11.1,0.0,0.0,3.12
07 October 2016,00:00:00,0.0,6.7,11.9,17.2,48.9,61.7,82.8,5.6,8.5,11.7,0.00,7.90,34.97,0.0,23.4,9.4,2.2,0.0,3.67
08 October 2016,00:00:00,0.0,8.7,14.1,19.6,40.1,65.2,84.1,7.0,10.0,13.4,0.00,7.70,29.73,0.0,23.9,9.0,4.1,0.0,3.87
09 October 2016,00:00:00,0.0,7.9,14.5,20.0,39.0,62.3,94.5,8.3,10.7,13.6,0.00,7.87,27.43,0.8,19.1,6.9,3.8,0.0,3.49
10 October 2016,00:00:00,0.0,6.9,12.3,18.0,57.8,78.4,94.9,8.7,11.2,13.7,*,8.89,27.34,2.0,21.1,7.3,2.0,0.0,2.98
11 October 2016,00:00:00,2.2,4.4,14.0,17.4,57.9,69.9,88.5,9.9,12.1,14.7,*,12.26,51.13,1.5,20.2,6.9,1.2,0.0,3.34
12 October 2016,00:00:00,4.2,2.8,5.1,8.0,60.1,76.0,90.7,8.1,9.9,11.9,*,10.27,38.79,5.8,17.5,3.9,0.0,0.0,1.96
13 October 2016,00:00:00,0.0,2.6,6.4,11.2,63.6,78.6,90.9,5.8,8.8,11.5,*,8.73,36.44,3.2,21.9,7.6,0.0,0.0,2.48
14 October 2016,00:00:00,0.0,4.2,8.3,13.7,45.8,73.3,93.3,7.7,9.8,12.5,*,6.75,29.14,0.0,21.5,8.7,0.0,0.0,2.75
15 October 2016,00:00:00,0.0,2.0,8.6,15.3,43.4,68.6,93.4,6.2,9.9,13.7,*,5.08,19.35,5.7,27.1,11.6,0.0,0.0,3.63
16 October 2016,00:00:00,0.0,5.8,11.3,16.2,49.7,64.4,76.5,7.0,10.7,14.3,*,7.21,28.75,0.0,27.5,11.7,1.1,0.0,3.83
17 October 2016,00:00:00,0.0,9.4,14.3,18.7,54.5,61.1,71.7,8.7,11.7,14.5,*,14.89,52.49,0.0,24.5,9.1,4.0,0.0,4.29
18 October 2016,00:00:00,20.0,5.6,8.6,15.4,58.9,86.5,97.2,8.8,10.7,12.5,*,10.29,42.71,21.8,9.4,2.3,0.7,0.0,1.20
19 October 2016,00:00:00,0.0,4.5,9.5,13.8,56.6,69.0,84.6,6.5,9.3,11.7,*,9.56,35.86,7.8,23.6,8.8,0.0,0.0,3.05
20 October 2016,00:00:00,0.0,3.7,8.0,11.5,47.2,68.5,89.7,7.7,10.1,13.0,0.00,6.71,27.89,6.3,24.4,9.9,0.0,0.0,3.00
21 October 2016,00:00:00,0.0,3.7,10.1,16.3,45.5,69.6,94.4,6.7,10.1,13.8,0.00,6.70,26.41,5.2,27.0,11.0,0.1,0.0,3.61
22 October 2016,00:00:00,1.2,6.5,13.6,19.6,57.0,74.7,97.4,7.5,10.8,13.8,0.00,9.45,42.89,5.0,21.3,7.3,3.1,0.0,3.11
23 October 2016,00:00:00,2.4,4.0,8.8,14.6,51.6,75.7,98.8,9.8,11.6,12.8,1.90,11.28,41.26,8.0,19.8,6.0,0.0,0.0,2.31
24 October 2016,00:00:00,0.0,1.8,6.2,11.5,45.0,72.2,94.7,7.5,10.2,13.8,0.00,8.33,36.45,0.0,26.8,10.3,0.0,1.0,3.07
25 October 2016,00:00:00,0.0,3.8,8.9,14.2,47.7,65.6,82.5,7.2,10.6,14.3,1.19,6.52,24.34,0.0,28.3,11.7,0.0,0.0,3.69
26 October 2016,00:00:00,0.0,4.9,11.1,17.1,43.9,60.8,79.9,7.8,11.3,15.2,0.00,6.49,30.25,0.0,28.6,11.8,1.1,0.0,4.04
27 October 2016,00:00:00,0.0,8.3,14.3,20.2,42.3,57.8,72.0,8.9,11.8,14.8,1.14,7.67,35.31,0.0,22.1,7.4,4.1,0.0,3.79
28 October 2016,00:00:00,0.0,11.3,16.3,22.4,41.3,57.8,92.3,9.8,13.3,17.3,1.32,7.08,26.97,2.5,27.3,10.9,6.7,0.0,4.76
29 October 2016,00:00:00,0.0,9.7,14.3,20.1,63.7,81.9,95.0,11.9,14.5,17.6,0.00,8.15,27.64,3.0,23.5,7.5,4.7,0.0,3.40
30 October 2016,00:00:00,0.0,9.9,16.0,21.4,62.7,81.0,98.4,12.2,15.6,19.0,0.00,7.25,27.26,8.4,27.8,11.6,5.7,0.0,4.12
31 October 2016,00:00:00,5.1,12.3,15.3,19.0,72.7,88.7,97.0,13.1,14.2,15.9,0.00,10.09,40.39,14.8,9.6,0.1,5.6,0.0,1.57
01 November 2016,00:00:00,1.9,3.2,7.7,13.5,46.9,65.3,97.8,10.5,13.0,15.8,1.31,9.08,41.23,1.0,30.0,12.0,0.0,0.0,3.50
02 November 2016,00:00:00,0.0,-0.5,8.5,14.6,45.0,61.0,92.0,8.1,12.1,16.1,0.00,6.04,26.01,0.0,28.8,11.7,0.0,4.0,3.91
03 November 2016,00:00:00,0.0,5.2,11.0,16.1,46.3,58.0,75.8,9.4,13.0,16.8,1.26,7.18,28.06,0.0,29.7,12.2,0.6,0.0,4.19
04 November 2016,00:00:00,0.0,6.0,13.0,19.7,38.3,59.2,79.0,10.2,13.9,18.3,1.14,5.55,24.80,0.0,29.8,12.2,3.0,0.0,4.62
05 November 2016,00:00:00,0.0,7.7,15.1,20.9,30.2,48.5,76.5,11.2,14.8,18.8,0.00,6.74,30.78,0.0,30.1,12.2,4.6,0.0,5.16
06 November 2016,00:00:00,0.0,9.2,11.6,14.9,34.4,48.6,65.3,11.8,14.5,17.8,0.00,11.22,47.28,0.0,30.4,12.1,1.7,0.0,4.47
07 November 2016,00:00:00,0.0,7.7,11.5,16.3,42.3,50.8,63.8,11.2,14.2,17.8,1.32,10.77,45.61,0.0,29.8,12.2,2.0,0.0,4.64
08 November 2016,00:00:00,0.0,7.6,15.9,22.6,34.7,52.3,73.7,11.2,15.0,18.9,0.00,8.33,42.14,0.0,29.7,12.2,5.3,0.0,5.17
09 November 2016,00:00:00,0.2,14.9,19.2,25.9,29.3,44.1,69.9,12.8,15.7,18.8,0.00,6.58,30.50,0.8,22.1,6.3,10.1,0.0,4.79
10 November 2016,00:00:00,0.6,10.7,14.2,19.9,61.8,79.7,94.5,13.5,15.2,16.5,0.00,6.39,36.18,10.5,16.0,5.7,5.2,0.0,2.39
11 November 2016,00:00:00,0.0,9.8,15.5,21.7,34.0,64.8,97.4,11.8,15.1,18.8,0.00,6.93,30.01,8.2,26.3,10.8,5.5,0.0,4.39
12 November 2016,00:00:00,2.2,11.4,18.7,25.0,33.3,50.7,91.8,12.7,16.6,21.0,0.00,5.59,24.62,1.1,29.6,11.7,8.2,0.0,5.51
13 November 2016,00:00:00,35.0,13.3,18.5,23.3,30.8,69.5,99.2,14.3,16.6,18.7,0.00,11.54,43.08,7.0,25.7,9.5,8.1,0.0,4.60
14 November 2016,00:00:00,3.0,7.5,12.0,17.0,36.8,66.3,92.6,12.4,14.7,16.8,0.00,11.15,52.48,3.8,24.9,8.6,1.6,0.0,3.57
15 November 2016,00:00:00,21.6,7.5,9.2,12.2,79.3,89.7,95.5,11.2,12.7,14.4,1.49,9.80,37.65,12.9,19.0,4.5,0.0,0.0,2.05
16 November 2016,00:00:00,0.0,4.2,11.4,17.5,44.3,76.3,99.2,10.0,13.2,16.5,0.00,6.39,26.61,3.3,29.4,9.8,0.9,0.0,3.98
17 November 2016,00:00:00,0.0,8.2,15.4,21.8,43.0,63.6,88.6,11.1,14.6,18.7,0.00,5.06,20.11,0.0,29.9,11.9,5.0,0.0,4.91
18 November 2016,00:00:00,0.0,10.0,16.0,22.2,48.1,73.9,98.2,13.0,16.3,20.5,1.51,6.24,27.64,18.3,30.4,11.3,6.2,0.0,4.84
19 November 2016,00:00:00,0.0,13.2,19.7,25.8,37.7,55.8,71.1,13.7,17.3,21.4,1.49,7.18,30.74,17.8,30.2,12.0,9.6,0.0,5.51
20 November 2016,00:00:00,0.0,16.6,21.1,26.6,37.2,50.8,72.4,15.1,18.2,21.5,1.20,6.57,25.62,13.7,23.8,8.1,11.5,0.0,4.99
21 November 2016,00:00:00,2.4,14.6,20.1,26.0,46.6,63.7,90.2,16.2,19.1,22.6,0.00,6.00,32.80,7.3,27.4,10.1,10.4,0.0,5.09
22 November 2016,00:00:00,6.4,12.8,19.6,25.8,37.4,60.9,95.7,16.0,18.4,21.3,0.00,7.84,35.52,1.9,29.4,11.0,9.5,0.0,5.40
23 November 2016,00:00:00,0.0,15.9,20.9,26.1,35.8,49.0,66.5,15.3,18.4,21.9,1.25,7.77,35.87,5.5,30.2,12.5,11.1,0.0,5.88
24 November 2016,00:00:00,0.0,8.5,15.8,21.9,46.3,65.2,92.0,15.8,17.5,19.1,0.00,7.67,39.01,20.5,18.1,5.2,5.1,0.0,3.08
25 November 2016,00:00:00,0.0,4.3,10.6,16.6,40.4,62.8,90.3,13.0,16.2,19.9,1.19,6.29,27.17,7.5,31.9,11.6,0.5,0.0,4.40
26 November 2016,00:00:00,0.0,7.5,13.0,19.3,33.4,53.4,72.0,13.2,16.6,20.5,0.00,6.38,35.74,1.8,31.9,12.6,3.5,0.0,4.87
27 November 2016,00:00:00,0.0,4.2,14.9,21.6,26.3,46.5,85.6,13.3,17.1,21.3,0.00,5.75,23.64,1.7,32.5,12.8,3.8,0.0,5.60
28 November 2016,00:00:00,0.0,7.2,16.9,24.1,26.6,50.4,92.6,13.8,17.6,21.6,1.14,5.07,19.87,1.8,32.1,12.8,6.1,0.0,5.70
29 November 2016,00:00:00,0.0,12.0,18.6,24.8,27.1,60.5,98.5,15.5,18.7,22.2,0.00,5.90,27.73,8.4,30.1,12.1,8.2,0.0,5.55
30 November 2016,00:00:00,0.0,12.8,19.6,24.9,21.9,31.5,57.2,15.5,18.9,22.0,0.00,5.52,33.61,0.0,29.7,10.9,9.2,0.0,5.96
01 December 2016,00:00:00,0.0,12.1,18.5,26.2,26.8,60.3,93.9,16.2,18.8,21.5,0.00,5.41,27.11,6.3,24.3,8.7,8.9,0.0,4.47
02 December 2016,00:00:00,0.0,11.9,19.8,26.5,26.7,41.5,74.4,16.1,19.1,22.3,0.00,6.06,28.60,0.5,26.5,10.0,9.4,0.0,5.46
03 December 2016,00:00:00,0.0,14.3,20.4,26.5,30.5,40.7,64.6,16.3,19.3,22.2,0.00,5.41,32.66,0.0,23.5,7.3,10.7,0.0,5.02
04 December 2016,00:00:00,0.0,14.5,22.3,29.4,27.4,42.8,63.5,16.3,19.9,23.9,1.67,5.58,25.88,0.7,30.0,12.2,11.9,0.0,6.34
05 December 2016,00:00:00,0.2,14.9,22.9,31.0,32.0,54.2,90.5,17.5,20.7,23.8,0.00,5.68,31.77,4.8,25.6,9.0,12.5,0.0,5.41
06 December 2016,00:00:00,1.0,17.7,23.3,30.8,34.9,58.6,89.4,18.9,20.8,23.0,0.00,5.29,30.11,4.5,17.0,3.9,13.9,0.0,3.94
07 December 2016,00:00:00,2.2,12.8,18.0,21.4,67.9,80.3,91.1,17.4,18.8,20.2,0.00,4.81,29.99,18.2,9.5,0.3,7.3,0.0,1.64
08 December 2016,00:00:00,1.6,7.6,17.1,24.7,24.5,55.0,90.9,14.8,18.6,23.1,0.00,5.21,21.04,6.7,32.2,12.9,6.4,0.0,5.74
09 December 2016,00:00:00,9.6,9.3,18.9,28.6,33.2,65.6,94.8,16.1,19.0,22.5,0.00,10.34,40.95,8.8,27.5,9.3,8.8,0.0,5.54
10 December 2016,00:00:00,0.0,6.4,11.0,16.6,36.4,64.0,86.5,13.8,16.3,18.9,0.00,9.71,39.07,1.5,28.2,9.1,1.3,0.0,3.94
11 December 2016,00:00:00,0.0,3.8,14.8,23.5,26.2,50.1,82.5,11.9,16.5,21.4,0.00,5.64,23.54,0.0,32.8,12.8,3.9,0.0,5.70
12 December 2016,00:00:00,0.0,9.5,17.9,25.9,30.6,59.9,94.7,13.9,18.0,21.9,0.00,5.23,22.51,4.5,29.6,12.0,7.7,0.0,5.35
13 December 2016,00:00:00,5.0,12.7,20.0,28.1,32.4,63.3,92.5,16.2,18.8,21.4,0.00,6.10,28.75,4.3,25.7,8.8,10.1,0.0,4.86
14 December 2016,00:00:00,0.0,16.3,22.7,29.7,28.0,44.9,63.0,16.2,19.1,22.5,1.68,8.53,31.96,0.0,28.9,10.6,12.9,0.0,6.36
15 December 2016,00:00:00,0.8,15.7,21.0,28.4,29.5,53.9,93.2,16.9,18.9,21.2,0.00,9.54,36.93,1.0,19.3,4.8,11.8,0.0,4.77
16 December 2016,00:00:00,11.2,12.8,15.2,16.6,87.2,94.0,98.1,15.6,16.8,18.8,0.00,6.21,26.11,15.9,3.7,0.0,4.6,0.0,0.60
17 December 2016,00:00:00,88.8,12.2,14.8,17.8,90.8,98.7,100.0,13.5,14.4,15.6,1.32,7.99,24.42,21.8,4.5,0.0,5.0,0.0,0.54
18 December 2016,00:00:00,0.2,14.8,18.7,24.7,33.4,70.0,100.0,14.3,16.3,18.8,1.43,8.65,36.87,7.5,26.2,8.9,9.7,0.0,4.80
19 December 2016,00:00:00,0.0,11.0,16.1,22.6,21.9,50.9,89.9,13.2,16.2,19.5,0.00,5.75,21.35,0.0,33.2,13.0,6.6,0.0,5.78
20 December 2016,00:00:00,0.0,10.7,16.1,23.3,40.6,67.8,87.7,14.1,17.0,20.1,0.00,7.97,26.91,0.0,28.5,10.0,6.7,0.0,4.66
21 December 2016,00:00:00,0.0,11.6,19.5,27.5,31.6,62.9,91.2,14.6,17.5,20.7,0.00,6.97,34.16,5.3,27.5,9.6,9.2,0.0,5.15
22 December 2016,00:00:00,0.0,13.2,19.5,24.3,24.9,36.6,81.8,15.4,18.7,22.2,0.00,6.41,32.51,0.0,32.9,13.0,9.5,0.0,6.43
23 December 2016,00:00:00,0.0,10.8,18.1,25.6,45.4,72.7,97.3,16.2,19.9,37.1,1.26,5.71,23.42,7.7,31.6,12.6,8.1,0.0,5.43
24 December 2016,00:00:00,0.7,11.0,19.5,27.4,38.2,68.4,94.6,16.8,19.4,21.8,0.00,5.47,35.61,6.7,30.7,11.3,9.1,0.0,5.55
25 December 2016,00:00:00,0.5,14.4,18.6,24.2,53.6,72.3,94.8,17.7,19.0,21.2,1.13,5.71,24.97,2.0,16.9,2.8,9.3,0.0,3.17
26 December 2016,00:00:00,0.0,12.0,18.9,24.6,50.9,69.7,90.3,16.3,18.4,20.3,0.00,5.81,28.52,0.0,25.6,9.0,8.4,0.0,4.53
27 December 2016,00:00:00,0.0,14.8,20.1,26.0,47.0,71.2,92.1,17.2,19.1,21.1,0.00,7.82,36.58,0.0,26.3,10.0,10.4,0.0,4.64
28 December 2016,00:00:00,0.0,16.2,22.2,28.1,40.9,62.6,82.0,17.9,19.7,22.1,0.00,6.34,27.91,0.0,29.0,10.8,12.4,0.0,5.58
29 December 2016,00:00:00,0.0,16.0,22.2,27.8,43.6,60.7,85.2,18.7,20.3,21.7,0.00,7.95,30.88,0.0,27.0,9.7,11.9,0.0,5.45
30 December 2016,00:00:00,0.0,19.3,24.9,30.8,38.0,47.2,76.5,18.9,21.0,23.9,1.73,8.96,31.87,0.0,30.5,10.9,15.1,0.0,7.05
31 December 2016,00:00:00,0.6,18.9,23.8,29.9,41.5,63.0,93.0,20.4,21.4,23.1,0.00,6.70,32.54,2.5,17.3,2.9,14.1,0.0,4.10
01 January 2017,00:00:00,0.0,18.5,23.7,29.2,32.6,62.0,98.6,19.8,21.9,24.7,0.00,5.26,26.77,8.2,30.7,12.3,13.8,0.0,6.18
02 January 2017,00:00:00,1.6,15.8,19.2,25.5,47.5,70.0,93.6,19.6,20.9,23.8,0.00,3.49,22.10,3.0,9.6,0.4,10.7,0.0,1.89
03 January 2017,00:00:00,0.0,14.9,20.0,26.0,24.0,60.3,88.9,17.9,20.1,23.5,0.00,5.45,24.95,0.0,31.8,11.0,10.5,0.0,5.89
04 January 2017,00:00:00,0.0,11.1,18.2,25.6,38.8,66.5,93.8,18.8,21.1,23.6,1.61,8.29,29.62,0.0,31.6,12.6,8.4,0.0,5.85
05 January 2017,00:00:00,0.0,11.8,16.9,23.2,47.4,71.0,94.4,18.7,20.3,22.2,1.82,8.69,29.81,0.2,25.4,8.5,7.2,0.0,4.43
06 January 2017,00:00:00,0.0,12.6,19.1,26.9,38.7,67.2,90.2,18.3,20.1,22.5,1.14,6.07,20.61,1.0,26.6,7.9,9.5,0.0,4.95
07 January 2017,00:00:00,0.0,13.4,19.9,27.9,35.4,66.8,93.8,18.8,20.9,23.2,1.78,6.91,28.42,6.0,29.4,11.5,10.6,0.0,5.68
08 January 2017,00:00:00,0.0,10.5,19.6,28.4,27.6,60.3,95.9,18.7,21.1,23.9,0.00,5.19,21.61,6.3,32.4,12.7,9.5,0.0,6.00
09 January 2017,00:00:00,0.0,13.6,21.7,29.6,31.8,61.0,94.3,19.0,21.2,23.2,0.00,5.48,27.18,6.2,27.7,9.8,11.4,0.0,5.40
10 January 2017,00:00:00,0.0,18.6,25.4,33.2,28.7,48.5,76.6,20.0,22.0,24.3,1.72,6.50,34.83,0.0,27.8,9.8,16.0,0.0,6.47
11 January 2017,00:00:00,0.2,18.0,23.2,30.1,40.7,63.6,83.2,21.1,22.3,23.9,0.00,4.40,23.89,1.2,17.9,3.4,13.7,0.0,3.91
12 January 2017,00:00:00,0.0,20.4,26.5,32.5,30.8,44.0,63.5,20.6,22.2,24.1,1.20,8.23,39.08,0.3,26.8,8.8,16.3,0.0,6.68
13 January 2017,00:00:00,0.0,14.1,25.5,34.3,14.0,32.2,86.5,20.4,22.7,25.3,0.00,5.40,24.07,1.0,32.3,12.8,14.3,0.0,7.43
14 January 2017,00:00:00,0.0,16.3,25.7,35.7,27.1,59.0,98.1,21.2,22.8,24.2,0.00,10.00,53.98,7.7,26.6,9.5,15.8,0.0,7.02
15 January 2017,00:00:00,0.0,13.5,22.6,27.3,21.0,51.6,80.1,21.6,23.2,25.1,0.00,6.93,30.99,0.0,28.6,9.2,10.5,0.0,5.98
16 January 2017,00:00:00,0.0,10.8,20.5,30.4,22.7,50.7,81.4,19.7,22.3,24.8,0.00,5.04,21.90,1.0,31.8,12.8,10.7,0.0,6.33
17 January 2017,00:00:00,0.0,12.6,22.5,32.4,18.3,53.4,96.2,20.4,22.7,25.0,0.00,5.14,37.20,7.8,31.8,12.8,12.5,0.0,6.63
18 January 2017,00:00:00,0.0,17.9,26.1,33.8,31.6,48.4,64.9,21.1,22.7,24.3,0.00,7.08,33.95,0.0,24.9,9.2,15.8,0.0,6.06
19 January 2017,00:00:00,0.0,19.4,28.4,36.5,12.9,37.9,62.8,21.8,23.8,26.3,0.00,9.57,36.10,0.0,30.4,12.5,18.1,0.0,8.17
20 January 2017,00:00:00,0.0,15.4,22.3,31.7,26.9,64.8,91.3,21.8,23.7,25.3,0.00,6.87,24.84,7.3,26.1,8.2,13.4,0.0,5.37
21 January 2017,00:00:00,39.0,13.2,18.4,24.2,77.1,92.2,99.8,19.8,21.3,24.2,0.00,10.81,49.50,16.2,6.1,0.1,8.6,0.0,1.04
22 January 2017,00:00:00,0.0,8.9,19.3,28.2,37.3,66.0,99.4,17.2,19.4,21.4,0.00,4.79,22.96,3.5,31.4,12.7,8.5,0.0,5.86
23 January 2017,00:00:00,0.0,12.4,20.7,28.6,33.5,62.9,94.6,18.1,19.8,21.7,0.00,6.33,22.89,0.0,30.6,12.7,10.5,0.0,5.88
24 January 2017,00:00:00,0.0,15.9,24.0,31.1,40.8,58.1,78.6,18.7,20.5,22.9,0.00,8.40,36.66,0.0,25.4,9.8,13.6,0.0,5.67
25 January 2017,00:00:00,2.6,18.6,23.1,26.5,56.5,72.1,93.6,19.9,20.9,22.1,0.00,8.34,33.37,2.8,15.6,2.8,12.7,0.0,3.46
26 January 2017,00:00:00,0.0,17.1,20.0,23.3,68.8,83.1,96.5,19.3,20.2,21.3,0.00,5.18,20.72,0.0,11.9,0.5,10.1,0.0,2.17
27 January 2017,00:00:00,0.0,16.0,22.1,29.8,19.0,64.1,97.6,18.7,20.4,23.3,0.00,4.23,19.82,0.0,27.2,9.0,12.7,0.0,5.48
28 January 2017,00:00:00,0.0,16.1,21.7,28.7,41.1,70.1,94.8,19.6,21.7,23.9,1.25,6.96,24.77,0.0,26.7,9.2,12.2,0.0,5.06
29 January 2017,00:00:00,0.0,14.3,22.9,31.8,32.2,64.6,96.6,19.6,21.8,24.0,0.00,5.56,29.86,1.2,25.7,9.6,12.8,0.0,5.12
30 January 2017,00:00:00,0.0,19.4,25.7,33.1,23.6,54.8,79.8,20.8,22.5,24.5,0.00,5.96,30.19,0.0,24.2,10.1,16.3,0.0,5.31
31 January 2017,00:00:00,0.0,19.7,26.5,33.5,25.9,51.1,75.6,21.1,23.0,25.2,1.19,8.44,35.67,0.0,27.4,10.7,16.6,0.0,6.63
01 February 2017,00:00:00,0.0,21.6,27.5,34.3,26.8,42.9,62.3,21.7,23.7,25.9,1.14,9.05,40.67,0.0,26.9,9.4,17.8,0.0,7.00
02 February 2017,00:00:00,0.0,18.8,24.1,32.3,37.5,65.7,89.0,22.3,23.8,25.1,0.00,6.80,33.42,0.0,19.9,4.2,15.3,0.0,4.50
03 February 2017,00:00:00,0.0,15.6,20.6,28.3,24.6,49.0,93.2,21.3,22.6,24.0,0.00,4.46,18.87,0.0,22.0,5.2,11.9,0.0,4.65
04 February 2017,00:00:00,0.0,15.0,21.1,29.2,25.4,56.2,94.9,20.5,22.1,23.8,0.00,4.39,25.93,1.0,21.6,6.3,11.9,0.0,4.46
05 February 2017,00:00:00,0.0,15.2,24.5,34.1,28.3,50.1,88.5,19.9,21.9,24.3,0.00,6.67,35.31,0.0,26.7,9.2,14.5,0.0,6.21
06 February 2017,00:00:00,0.0,19.6,26.5,33.4,33.2,51.8,73.9,21.4,22.8,24.2,1.43,8.28,33.45,0.0,20.7,6.3,16.5,0.0,5.62
07 February 2017,00:00:00,0.0,20.8,27.8,35.3,23.5,39.0,76.4,21.5,23.3,25.4,0.00,9.02,43.82,0.0,26.4,9.7,17.9,0.0,7.13
08 February 2017,00:00:00,0.8,17.4,20.6,24.0,71.1,83.7,94.5,21.5,22.4,24.7,1.32,5.77,24.87,2.5,8.3,0.3,10.8,0.0,1.65
09 February 2017,00:00:00,0.0,16.1,21.4,29.3,45.4,74.5,94.1,19.5,21.1,23.0,1.96,9.53,38.28,7.7,22.9,7.6,12.4,0.0,4.67
10 February 2017,00:00:00,0.0,15.6,24.0,33.0,28.0,59.9,96.1,20.0,21.9,24.4,1.32,6.15,23.68,8.0,28.8,12.4,14.1,0.0,5.98
11 February 2017,00:00:00,0.0,19.9,28.7,37.4,21.5,39.8,66.7,21.3,23.3,26.0,0.00,6.17,28.53,0.0,28.1,11.8,18.9,0.0,7.06
12 February 2017,00:00:00,0.0,26.1,32.3,38.8,17.5,26.9,41.0,22.5,24.5,26.5,0.00,7.34,42.95,0.0,26.2,10.5,22.4,0.0,7.80
13 February 2017,00:00:00,0.0,10.2,24.4,33.8,30.9,44.8,69.9,23.3,24.8,26.5,0.00,8.30,41.98,0.0,27.5,10.4,12.0,0.0,6.59
14 February 2017,00:00:00,0.0,8.4,15.6,23.0,28.1,50.1,76.9,20.4,22.4,24.9,0.00,6.80,27.62,0.0,29.0,12.3,5.6,0.0,5.30
15 February 2017,00:00:00,0.0,8.7,17.6,27.0,22.9,58.2,87.7,19.0,21.3,23.6,0.00,5.35,26.51,8.1,28.1,11.6,7.8,0.0,5.30
16 February 2017,00:00:00,0.0,12.0,19.3,27.7,33.2,62.7,93.1,19.8,21.7,23.6,0.00,7.21,27.14,8.0,24.2,9.4,9.7,0.0,4.74
17 February 2017,00:00:00,0.0,14.9,23.0,30.9,25.8,45.6,71.9,19.8,21.8,23.9,0.00,6.36,28.35,0.0,25.5,10.7,13.1,0.0,5.79
18 February 2017,00:00:00,0.0,19.0,25.7,32.7,15.5,37.1,58.4,20.5,22.2,24.0,1.13,8.52,43.99,0.0,23.3,9.2,15.8,0.0,6.32
19 February 2017,00:00:00,0.4,12.2,20.0,26.9,44.3,65.7,87.3,20.9,21.9,23.5,0.00,7.33,33.82,10.3,19.0,6.8,9.5,0.0,3.92
20 February 2017,00:00:00,0.0,9.4,14.7,20.7,23.3,39.0,56.7,18.7,20.4,22.0,2.02,7.70,27.45,0.0,28.0,11.8,4.9,0.0,5.32
21 February 2017,00:00:00,0.0,7.1,12.7,19.2,24.3,45.1,84.0,17.7,19.5,21.3,1.96,7.35,32.54,2.0,28.1,11.9,3.0,0.0,4.68
22 February 2017,00:00:00,0.0,6.0,16.5,27.2,16.7,39.5,71.3,16.5,19.1,21.4,0.00,4.60,21.05,3.6,27.9,11.9,6.5,0.0,5.32
23 February 2017,00:00:00,0.0,11.1,20.1,29.2,24.0,56.9,97.6,18.0,19.9,22.2,0.00,6.15,31.94,8.4,27.2,12.2,10.0,0.0,5.58
24 February 2017,00:00:00,0.0,15.1,23.0,32.3,23.2,48.1,77.1,18.9,20.9,23.4,0.00,6.01,46.58,3.0,24.9,9.8,13.5,0.0,5.56
25 February 2017,00:00:00,0.0,16.5,24.4,32.2,16.6,39.0,65.0,20.0,21.9,24.0,0.00,6.02,30.83,0.0,26.4,11.2,14.2,0.0,6.33
26 February 2017,00:00:00,0.2,13.4,18.3,27.1,38.3,75.8,96.3,19.9,21.3,23.3,1.20,7.35,30.98,14.6,19.5,7.6,9.9,0.0,3.78
27 February 2017,00:00:00,0.0,12.3,16.9,24.2,38.0,70.6,94.7,18.8,20.1,21.4,1.84,8.92,31.95,11.7,22.6,8.4,7.8,0.0,4.14
28 February 2017,00:00:00,0.0,10.8,17.2,25.1,33.8,67.4,95.9,18.1,19.7,21.4,1.32,8.23,31.06,8.7,22.3,8.8,7.8,0.0,4.36
01 March 2017,00:00:00,0.0,12.8,17.7,25.4,45.9,73.4,93.4,18.2,19.5,20.9,1.19,8.38,30.09,12.0,16.8,4.9,8.7,0.0,3.38
02 March 2017,00:00:00,0.0,13.1,18.6,26.0,44.5,72.7,94.3,18.1,19.4,21.2,1.38,8.24,31.76,12.0,20.5,7.9,9.4,0.0,4.04
03 March 2017,00:00:00,5.4,12.8,19.1,27.8,33.8,73.9,98.8,18.3,19.9,21.5,1.26,4.90,23.40,13.0,20.5,8.2,10.2,0.0,4.08
04 March 2017,00:00:00,0.2,13.5,17.9,26.1,46.3,81.7,99.0,18.1,19.2,21.1,0.00,7.24,33.93,8.2,16.5,5.7,9.4,0.0,3.12
05 March 2017,00:00:00,2.2,14.6,17.3,22.6,60.7,83.3,97.7,17.3,18.3,19.1,0.00,6.57,25.39,6.5,10.7,0.7,8.5,0.0,2.09
06 March 2017,00:00:00,0.4,13.1,17.8,24.9,38.6,74.7,97.9,16.5,17.9,19.4,0.00,4.77,28.01,8.2,21.0,7.1,8.5,0.0,3.86
07 March 2017,00:00:00,0.0,10.2,17.2,25.1,23.3,60.1,90.8,16.3,18.2,20.5,0.00,4.96,21.40,0.0,25.4,11.2,7.7,0.0,4.67
08 March 2017,00:00:00,0.0,9.0,15.6,23.8,33.8,63.7,91.3,16.3,18.2,20.2,1.25,7.99,28.88,3.0,24.5,10.8,6.4,0.0,4.53
09 March 2017,00:00:00,0.0,7.9,13.9,21.3,43.1,70.6,93.2,16.2,17.6,19.1,1.61,8.23,33.38,2.2,20.0,8.2,4.3,0.0,3.49
10 March 2017,00:00:00,0.0,8.1,14.6,23.0,33.7,67.0,96.4,15.3,17.3,19.4,1.66,5.89,25.46,7.3,24.9,11.7,5.4,0.0,4.29
11 March 2017,00:00:00,0.0,7.4,15.8,24.2,22.8,57.9,94.2,15.6,17.6,19.6,0.00,5.16,28.02,8.4,24.4,11.4,5.9,0.0,4.59
12 March 2017,00:00:00,0.0,12.0,18.8,25.6,26.0,43.8,66.0,16.2,18.0,20.3,0.00,5.06,21.20,0.0,23.3,10.5,8.7,0.0,4.81
13 March 2017,00:00:00,0.0,13.0,20.7,28.4,21.5,41.5,68.0,16.6,18.6,20.8,1.38,8.25,33.53,0.0,23.3,9.7,10.8,0.0,5.72
14 March 2017,00:00:00,58.8,11.7,14.0,16.7,59.5,83.4,100.0,15.7,17.5,20.2,0.00,5.60,30.20,12.5,3.7,0.3,3.9,0.0,0.80
15 March 2017,00:00:00,0.0,12.2,16.7,21.7,60.4,81.0,100.0,14.3,15.4,16.5,1.15,10.53,42.62,6.7,18.4,5.3,6.8,0.0,3.16
16 March 2017,00:00:00,0.0,15.6,18.8,24.8,53.7,76.3,89.8,15.2,16.3,17.5,3.02,12.61,39.99,0.0,16.9,4.8,10.0,0.0,3.48
17 March 2017,00:00:00,0.0,16.6,19.4,25.2,55.6,79.5,96.4,16.2,17.2,18.6,0.00,5.43,25.18,0.0,14.9,4.1,10.4,0.0,2.85
18 March 2017,00:00:00,0.0,13.5,18.1,24.5,50.9,72.3,88.3,16.0,17.5,19.5,1.19,7.50,32.26,0.0,22.7,10.2,8.9,0.0,4.19
19 March 2017,00:00:00,0.8,13.1,16.9,21.4,66.5,81.6,93.7,16.2,16.7,18.6,2.31,11.74,45.98,8.8,9.9,0.8,7.0,0.0,2.05
20 March 2017,00:00:00,5.6,16.0,20.3,27.0,53.1,78.3,98.2,15.9,16.9,18.7,0.00,10.02,39.37,4.3,12.6,2.5,11.0,0.0,2.81
21 March 2017,00:00:00,5.6,16.1,19.6,25.8,58.1,87.0,99.5,16.3,17.5,18.8,0.00,4.90,25.67,12.5,13.9,3.9,10.7,0.0,2.62
22 March 2017,00:00:00,42.2,17.0,18.2,19.6,86.4,95.8,100.0,16.5,17.1,18.3,0.00,3.87,21.47,13.3,2.8,0.1,8.2,0.0,0.43
23 March 2017,00:00:00,40.2,15.3,18.4,24.3,78.2,98.4,100.0,16.4,17.1,18.2,0.00,6.20,36.31,16.0,10.1,2.3,9.5,0.0,1.60
24 March 2017,00:00:00,24.6,14.9,16.6,19.6,90.6,97.2,100.0,16.3,16.6,17.5,0.00,4.79,18.22,15.5,5.8,0.2,7.0,0.0,0.90
25 March 2017,00:00:00,0.2,12.6,16.3,21.9,66.4,86.9,100.0,15.6,16.5,17.7,1.32,7.94,26.03,8.4,19.4,8.0,7.0,0.0,3.07
26 March 2017,00:00:00,0.0,12.8,17.2,21.8,77.6,90.3,97.7,15.3,16.3,17.1,0.00,5.38,24.59,2.3,11.5,3.2,7.1,0.0,1.91
27 March 2017,00:00:00,0.0,15.2,20.2,26.2,39.5,73.1,100.0,16.2,17.2,18.7,0.00,3.71,25.98,7.2,19.5,9.9,10.6,0.0,3.82
28 March 2017,00:00:00,0.0,13.9,19.7,25.0,52.8,78.4,96.8,16.1,17.3,18.9,0.00,6.22,30.12,6.8,20.5,10.7,9.5,0.0,3.82
29 March 2017,00:00:00,0.0,15.5,20.9,25.7,61.5,80.9,94.5,16.9,18.3,20.0,0.00,7.04,30.51,2.2,20.1,9.6,10.7,0.0,3.67
30 March 2017,00:00:00,0.0,15.0,21.0,26.8,58.5,77.0,93.6,16.7,18.2,19.6,0.00,7.69,36.85,0.0,17.5,7.6,10.9,0.0,3.43
31 March 2017,00:00:00,0.0,9.8,16.3,21.9,52.9,68.8,91.6,17.2,18.2,19.0,0.00,8.42,34.24,0.8,16.3,6.6,5.9,0.0,3.00
01 April 2017,00:00:00,1.0,5.0,11.3,17.7,52.2,71.1,91.0,14.0,15.7,17.2,1.13,5.53,21.78,0.0,19.7,9.8,1.4,0.0,3.08
02 April 2017,00:00:00,0.0,7.3,12.2,17.1,45.7,69.4,95.3,13.8,15.2,16.6,0.00,5.03,24.94,6.0,20.4,10.3,2.1,0.0,3.27
03 April 2017,00:00:00,0.0,7.4,12.1,18.0,55.4,78.2,95.3,13.8,15.1,16.3,1.25,5.93,23.73,2.5,17.3,7.6,2.6,0.0,2.61
04 April 2017,00:00:00,0.0,5.8,10.6,16.3,63.7,81.3,92.9,13.1,14.4,15.8,1.21,6.95,29.50,2.2,16.3,6.3,1.0,0.0,2.34
05 April 2017,00:00:00,0.0,6.2,11.4,17.6,40.3,74.6,94.6,12.7,14.1,15.8,1.96,7.65,27.59,2.5,19.6,10.2,1.9,0.0,3.06
06 April 2017,00:00:00,0.0,7.2,11.8,17.4,51.4,77.7,96.0,13.0,14.1,15.2,1.43,7.17,30.49,3.5,16.8,7.7,2.0,0.0,2.55
07 April 2017,00:00:00,0.0,6.5,11.2,16.6,56.8,80.3,95.6,12.6,13.8,14.9,0.00,4.21,18.49,10.0,14.0,4.5,1.6,0.0,2.13
08 April 2017,00:00:00,0.0,7.8,12.3,19.3,45.7,75.8,96.1,12.4,13.9,15.9,0.00,4.53,22.09,9.7,19.4,9.7,3.5,0.0,3.03
09 April 2017,00:00:00,0.0,7.7,13.1,19.7,51.7,75.1,98.1,12.4,14.2,16.0,0.00,4.40,19.58,7.7,18.6,8.9,3.5,0.0,3.01
10 April 2017,00:00:00,6.2,4.1,11.5,19.5,58.1,76.4,98.1,13.1,13.9,15.0,1.27,10.52,44.80,6.2,11.3,3.7,1.6,0.0,1.97
11 April 2017,00:00:00,2.8,1.7,6.2,10.4,75.6,90.0,99.2,10.6,11.3,13.3,0.00,10.15,45.57,11.0,7.8,0.2,0.0,1.0,0.73
12 April 2017,00:00:00,0.0,6.5,11.9,17.6,56.4,79.7,96.4,10.3,11.7,13.4,0.00,5.27,23.45,0.0,18.6,10.2,2.3,0.0,2.80
13 April 2017,00:00:00,0.0,6.7,12.1,18.7,54.8,80.7,97.1,10.9,12.1,13.6,0.00,4.22,21.23,9.5,15.5,7.7,2.5,0.0,2.45
14 April 2017,00:00:00,0.0,7.0,11.7,17.8,52.9,79.7,99.5,11.2,12.2,13.6,0.00,4.33,19.53,7.8,14.8,7.3,2.1,0.0,2.31
15 April 2017,00:00:00,0.0,7.7,12.6,18.5,35.9,64.5,85.4,10.8,12.1,13.7,0.00,4.34,18.56,0.0,18.2,9.9,3.2,0.0,3.08
16 April 2017,00:00:00,0.0,7.6,12.3,18.1,47.4,65.6,80.1,10.8,12.2,13.8,0.00,4.91,24.93,0.0,17.6,9.6,3.2,0.0,2.93
17 April 2017,00:00:00,0.0,7.5,12.5,19.1,41.4,62.5,80.0,10.8,12.1,13.6,0.00,4.62,30.46,0.0,15.4,6.8,3.2,0.0,2.73
18 April 2017,00:00:00,0.0,8.2,13.1,19.8,46.1,69.7,88.3,10.8,12.0,13.4,0.00,3.51,16.26,0.0,13.3,5.4,3.9,0.0,2.19
19 April 2017,00:00:00,0.2,8.6,13.3,20.9,45.2,76.6,97.1,11.2,12.3,13.6,0.00,3.75,17.81,7.3,13.1,5.8,4.8,0.0,2.26
20 April 2017,00:00:00,0.0,7.4,12.5,18.7,49.2,79.8,98.9,11.2,12.4,13.8,0.00,5.69,22.67,10.8,17.4,9.8,3.2,0.0,2.70
21 April 2017,00:00:00,0.0,8.7,13.4,20.0,43.8,76.5,99.8,11.2,12.5,14.0,0.00,3.96,23.46,7.8,17.1,9.7,4.3,0.0,2.79
22 April 2017,00:00:00,0.0,8.5,13.0,18.3,58.4,78.1,94.9,11.8,12.9,13.7,0.00,3.90,20.47,6.2,12.3,3.9,3.2,0.0,2.00
23 April 2017,00:00:00,0.0,10.2,13.7,18.4,55.0,74.9,91.4,12.3,13.2,13.8,0.00,4.03,19.51,1.3,11.9,4.2,4.3,0.0,2.04
24 April 2017,00:00:00,0.0,8.9,13.1,17.7,63.7,81.3,93.8,12.0,12.9,13.7,0.00,2.92,10.72,10.6,6.7,1.5,3.3,0.0,1.12
25 April 2017,00:00:00,0.0,9.1,14.1,19.6,56.9,78.8,97.0,11.5,12.7,13.8,0.00,4.72,20.42,8.9,12.9,5.8,4.3,0.0,2.21
26 April 2017,00:00:00,25.4,12.0,13.2,16.8,70.6,89.7,100.0,12.4,13.0,13.7,0.00,8.58,42.89,13.0,3.7,0.6,4.2,0.0,0.64